Regional Weather Roundup
Issued by NWS Green Bay, WI

Home | Current Version | Previous Version | Text Only | Print | Product List | Glossary On
Versions: 1 2 3 4 5 6 7 8 9 10 11 12 13 14 15 16 17 18 19 20 21 22 23 24 25 26 27 28 29 30 31 32 33 34 35 36 37 38 39 40 41 42 43 44 45 46 47 48 49 50
000
ASUS43 KGRB 272000
RWRGRB

NORTH-CENTRAL AND NORTHEAST WISCONSIN REGIONAL WEATHER ROUNDUP
NATIONAL WEATHER SERVICE GREEN BAY WI
300 PM CDT THU AUG 27 2015

WIZ005-009-010>012-018-019-272100-
NORTH CENTRAL WISCONSIN

CITY           SKY/WX    TMP DP  RH WIND       PRES   REMARKS
IRONWOOD       SUNNY     73  52  46 W8        30.03F
MANITOWISH WTR NOT AVBL
ARBOR VITAE    NOT AVBL
EAGLE RIVER    NOT AVBL
LAND O LAKES   NOT AVBL
RHINELANDER    MOSUNNY   74  53  48 SW10      30.11F
PHILLIPS       MOSUNNY   72  55  53 S7        30.08F
ANTIGO         NOT AVBL
TOMAHAWK       NOT AVBL
MERRILL        SUNNY     73  55  53 SW9       30.10F
$$

WIZ013-073-272100-
NORTHEAST WISCONSIN

CITY           SKY/WX    TMP DP  RH WIND       PRES   REMARKS
IRON MOUNTAIN  MOSUNNY   73  54  51 S7        30.08F
MARINETTE      SUNNY     72  55  56 SE12      30.09F
$$

WIZ017-030-035>037-045-272100-
CENTRAL WISCONSIN

CITY           SKY/WX    TMP DP  RH WIND       PRES   REMARKS
MEDFORD        NOT AVBL
WAUSAU         SUNNY     74  54  49 S10       30.09F
MOSINEE        MOSUNNY   73  54  49 SW9       30.11F
MARSHFIELD     MOSUNNY   76  53  44 SW10      30.09F
WISC RAPIDS    SUNNY     75  53  46 S7        30.11F
STEVENS POINT  NOT AVBL
WAUPACA        NOT AVBL
SHAWANO        NOT AVBL
CLINTONVILLE   MOSUNNY   73  52  46 SW9       30.10F
WAUTOMA        NOT AVBL
$$

WIZ038-039-048-051-272100-
FOX VALLEY

CITY           SKY/WX    TMP DP  RH WIND       PRES   REMARKS
NWS GREEN BAY  SUNNY     75  56  51 VRB6      30.11F
APPLETON       PTSUNNY   72  54  53 S7        30.11F
OSHKOSH        MOSUNNY   74  57  55 S8        30.11F
FOND DU LAC    SUNNY     75  55  49 SW7       30.12F
$$

WIZ022-050-052-272100-
EAST CENTRAL WISCONSIN

CITY           SKY/WX    TMP DP  RH WIND       PRES   REMARKS
EPHRAIM        FAIR      70  57  62 SW5       30.11F
STURGEON BAY   PTSUNNY   70  61  73 E6        30.14F
MANITOWOC      NOT AVBL
SHEBOYGAN      PTSUNNY   72  59  63 S8        30.13F
$$

LMZ563-521-522-541>543-272100-
LAKESHORE

STATION/POSITION TIME  TEMP    WIND        PRES    VSBY  WAVE
                       AIR SEA DIR/SP/G                  HT/PER
                 (UTC) (F)     (DEG/KT/KT) (MB)    (MI)  (FT/S)
SHEBOYGAN LKSHOR 1900   61     180/ 22/ 23 1021.3F
KEWAUNEE LKSHORE 1900   54     170/  8/  9   N/A
ALGOMA MARINA    1914          200/  5/  7   N/A
NORTHPORT PIER   1900   61     130/  9/ 10 1020.3F
N MID LAKE BUOY  1850   59 65  200/  8/  8 1020.8F         1
S GREEN BAY BUOY 1900   60     160/  6/  6 1022.0F
SISTER BAY LKSHO 1904   69     320/  5/  5   N/A
CHAMBERS ISLAND  1940   67     150/  4/  7 1020.0F
MENOMINEE LKSHOR 1900   62     160/  8/  9   N/A
$$


USA.gov is the U.S. government's official web portal to all federal, state and local government web resources and services.